[[{"header":{"parameterUnit":"m.s-1","parameterCategory":1,"la1":30.2991,"la2":30.254,"lo1":-89.0895,"lo2":-89.0444,"dy":0.0017,"dx":0.0017,"nx":28,"ny":28,"refTime":"2024-11-24T03:00:00:Z","depth":0,"parameterNumber":2,"parameterNumberName":"U-component_of_WINDS"},"data":[0,0,0,0,0,0,0,0,0,0,0,0,0,0,0,0,0,0,0,0,0,0,0,0,0,0,0,0,0,0,0,0,0,0,0,0,0,0,0,0,0,0,0,0,0,0,0,0,0,0,0,0,0,0,0,0,0,0,0.6569,0.6571,0,0.6685,0.6687,0.6688,0.674,0.674,0.674,0.674,0.6862,0.6866,0.6869,0,0,0,0,0,0,0,0,0,0,0,0,0,0.6398,0.6401,0.6569,0.6571,0.6572,0.6685,0.6687,0.6688,0.674,0.674,0.674,0.674,0.6861,0.6865,0.6869,0,0,0,0,0,0,0,0,0,0,0,0,0,0.6489,0.6401,0.6569,0.6612,0.6616,0.6685,0.6687,0.6689,0.674,0.674,0.674,0.674,0.686,0.6865,0.687,0.6906,0,0,0.6886,0.6888,0,0,0,0,0,0,0,0,0.6484,0.6495,0.6604,0.6609,0.6614,0.6698,0.6671,0.6762,0.674,0.6693,0.674,0.674,0.6808,0.6818,0.684,0.6912,0.6917,0.6886,0.6889,0.6891,0.6893,0,0,0,0,0,0,0,0.6477,0.649,0.6615,0.6605,0.6612,0.6627,0.6639,0.6689,0.6751,0.6697,0.6702,0.6714,0.6811,0.6835,0.6843,0.6919,0.6886,0.689,0.6894,0.6896,0.703,0.703,0,0,0,0,0,0,0.6463,0.6485,0.6612,0.6619,0.6547,0.663,0.6644,0.6671,0.675,0.6762,0.6714,0.6716,0.6826,0.6837,0.6848,0.6898,0.6891,0.6896,0.6899,0.7029,0.703,0.7031,0,0,0,0,0,0,0.6459,0.6474,0.6607,0.6553,0.6571,0.6633,0.6663,0.6674,0.6698,0.6763,0.6775,0.6727,0.6827,0.6841,0.6892,0.6902,0.6898,0.6903,0.7029,0.703,0.703,0.6996,0,0,0,0,0,0,0.6454,0.6472,0.6485,0.6553,0.6574,0.6647,0.6664,0.6676,0.6706,0.671,0.6778,0.6789,0.6827,0.6884,0.6897,0.6909,0.6907,0.7028,0.7029,0.703,0.6996,0.6995,0.6994,0,0,0,0,0,0.6448,0.6471,0.6485,0.65,0.6591,0.6647,0.666,0.6702,0.6706,0.6721,0.6764,0.6787,0.6899,0.6889,0.6904,0.6918,0.7028,0.7029,0.703,0.6996,0.6995,0.6994,0,0,0,0,0,0,0.6403,0.648,0.6497,0.6542,0.6588,0.6656,0.6675,0.6699,0.6745,0.6746,0.6799,0.6814,0.6861,0.6895,0.6882,0.6959,0.6966,0.697,0.6935,0.6934,0.6933,0.6925,0.6911,0,0,0,0,0,0.6398,0.6436,0.6502,0.6536,0.6558,0.6613,0.6639,0.6668,0.6718,0.6737,0.6784,0.6832,0.6879,0.6908,0.6955,0.7001,0.7019,0.7019,0.7018,0.7017,0.702,0.7051,0.7052,0.7034,0.7034,0.7034,0,0,0.6389,0.6436,0.6457,0.6528,0.6567,0.6607,0.6628,0.667,0.6701,0.6744,0.6796,0.6831,0.6889,0.6939,0.6963,0.6969,0.7029,0.7018,0.7017,0.7021,0.7052,0.7054,0.7055,0.7035,0.7035,0.7035,0,0,0.6393,0.6431,0.6464,0.6503,0.6562,0.6598,0.6606,0.6672,0.6697,0.6749,0.6784,0.6823,0.6901,0.6942,0.6973,0.6995,0.702,0.7009,0.7004,0.7034,0.7035,0.7037,0.7047,0.705,0.7012,0.7012,0.7012,0,0.6374,0.6435,0.6479,0.6519,0.6551,0.6591,0.6627,0.6663,0.6734,0.6756,0.6761,0.6862,0.6903,0.6965,0.6971,0.6993,0.7007,0.7002,0.7031,0.7033,0.7035,0.7046,0.705,0.701,0.7011,0.7011,0.7011,0,0.641,0.6452,0.6473,0.654,0.6574,0.6612,0.6664,0.6693,0.672,0.6757,0.6812,0.6864,0.6922,0.6939,0.6965,0.7005,0.7007,0.7021,0.7029,0.7035,0.7046,0.705,0.7008,0.7009,0.7009,0.701,0,0,0.6388,0.6481,0.6488,0.652,0.6589,0.6623,0.6664,0.6721,0.6747,0.6795,0.6833,0.6899,0.6913,0.6948,0.698,0.7005,0.7024,0.7016,0.7019,0.7018,0.7075,0.7065,0.7069,0.704,0.7041,0.7042,0.707,0,0.6403,0.6477,0.6519,0.6576,0.6618,0.6658,0.6695,0.6742,0.6778,0.682,0.6861,0.6909,0.6922,0.6944,0.6971,0.7015,0.7036,0.7014,0.7078,0.708,0.7063,0.7074,0.7064,0.7088,0.7075,0.7076,0.7076,0,0.6429,0.6477,0.6538,0.6605,0.6624,0.6656,0.6713,0.6752,0.6808,0.6833,0.6874,0.6906,0.6953,0.6957,0.7026,0.701,0.7039,0.7065,0.7067,0.7076,0.7079,0.7085,0.7097,0.7101,0.7083,0.7082,0.7082,0,0.641,0.6489,0.6537,0.6563,0.6642,0.6664,0.6698,0.6754,0.6786,0.6837,0.6859,0.6915,0.6946,0.699,0.7037,0.7035,0.7102,0.7109,0.7126,0.7125,0.7139,0.7138,0.7157,0.7155,0.7154,0.7154,0.7154,0,0.6422,0.6459,0.653,0.6559,0.6603,0.6652,0.6694,0.6732,0.6781,0.6821,0.686,0.6896,0.6956,0.7001,0.7038,0.7091,0.7104,0.7127,0.7137,0.7125,0.7122,0.7145,0.7146,0.7155,0.7155,0.7155,0.7155,0,0.6407,0.6456,0.6511,0.6582,0.6601,0.663,0.6691,0.6723,0.6762,0.6812,0.6827,0.6889,0.6944,0.6995,0.7068,0.7094,0.7148,0.7159,0.7129,0.7134,0.7149,0.7148,0.7186,0.7195,0.7184,0.7184,0.7184,0,0.6413,0.6442,0.6516,0.6545,0.6579,0.6624,0.6659,0.6709,0.6744,0.6811,0.6835,0.6893,0.6942,0.7029,0.7082,0.7139,0.7154,0.7163,0.7163,0.715,0.7157,0.7155,0.716,0.7162,0.7162,0.7162,0.7162,0,0.6418,0.6442,0.6488,0.6544,0.6584,0.663,0.6679,0.6701,0.6761,0.6798,0.6855,0.6893,0.6968,0.7027,0.709,0.7128,0.7156,0.7162,0.7169,0.7158,0.7139,0.7152,0.7128,0.7161,0.7161,0.7161,0.7161,0.7161,0.6416,0.6445,0.6502,0.6554,0.6596,0.6641,0.6675,0.6719,0.6766,0.6831,0.6859,0.6917,0.6976,0.7065,0.7102,0.715,0.7156,0.7166,0.7169,0.7172,0.717,0.7131,0.7162,0.7162,0.7162,0.7162,0.7162,0,0.6425,0.6464,0.6512,0.6578,0.662,0.6642,0.6697,0.6731,0.6781,0.6833,0.6881,0.6948,0.7005,0.7063,0.7125,0.7152,0.7167,0.7167,0.7166,0.7175,0.716,0.7148,0.7154,0.7154,0.7154,0.7154,0.7154,0.7154,0.6435,0.6486,0.6517,0.659,0.663,0.6687,0.6717,0.676,0.6802,0.6875,0.6922,0.696,0.7015,0.7081,0.7136,0.7152,0.7174,0.717,0.719,0.7175,0.7175,0.7176,0.7165,0.7174,0.7174,0.7201,0.7201,0.7201]},{"header":{"parameterUnit":"m.s-1","parameterCategory":1,"la1":30.2991,"la2":30.254,"lo1":-89.0895,"lo2":-89.0444,"dy":0.0017,"dx":0.0017,"nx":28,"ny":28,"refTime":"2024-11-24T03:00:00:Z","depth":0,"parameterNumber":3,"parameterNumberName":"V-component_of_WINDS"},"data":[0,0,0,0,0,0,0,0,0,0,0,0,0,0,0,0,0,0,0,0,0,0,0,0,0,0,0,0,0,0,0,0,0,0,0,0,0,0,0,0,0,0,0,0,0,0,0,0,0,0,0,0,0,0,0,0,0,0,4.0609,4.0609,0,4.0628,4.0628,4.0628,4.0636,4.0636,4.0636,4.0636,4.0651,4.0651,4.0652,0,0,0,0,0,0,0,0,0,0,0,0,0,4.0578,4.0579,4.0609,4.0609,4.0609,4.0627,4.0628,4.0628,4.0636,4.0636,4.0636,4.0636,4.0651,4.0651,4.0652,0,0,0,0,0,0,0,0,0,0,0,0,0,4.0594,4.0579,4.0609,4.0616,4.0617,4.0627,4.0628,4.0628,4.0636,4.0636,4.0636,4.0636,4.0651,4.0651,4.0652,4.0656,0,0,4.0654,4.0654,0,0,0,0,0,0,0,0,4.0593,4.0595,4.0615,4.0615,4.0616,4.063,4.0622,4.0637,4.0637,4.0629,4.0636,4.0636,4.0644,4.0645,4.0648,4.0656,4.0657,4.0654,4.0654,4.0654,4.0655,0,0,0,0,0,0,0,4.0592,4.0594,4.0616,4.0615,4.0616,4.0617,4.062,4.0625,4.0636,4.0629,4.063,4.0633,4.0644,4.0648,4.0649,4.0657,4.0654,4.0654,4.0655,4.0655,4.0673,4.0673,0,0,0,0,0,0,4.059,4.0593,4.0615,4.0617,4.0604,4.0618,4.062,4.0625,4.0636,4.0638,4.0633,4.0633,4.0647,4.0648,4.0649,4.0657,4.0654,4.0655,4.0655,4.0673,4.0673,4.0673,0,0,0,0,0,0,4.0589,4.0592,4.0615,4.0605,4.0608,4.0619,4.0624,4.0626,4.0629,4.0638,4.064,4.0634,4.0647,4.0648,4.0655,4.0657,4.0655,4.0656,4.0672,4.0673,4.0673,4.067,0,0,0,0,0,0,4.0588,4.0592,4.0593,4.0605,4.0609,4.0621,4.0624,4.0626,4.0631,4.0631,4.064,4.0642,4.0647,4.0654,4.0656,4.0658,4.0656,4.0672,4.0673,4.0673,4.067,4.067,4.067,0,0,0,0,0,4.0587,4.059,4.0593,4.0596,4.0611,4.0621,4.0623,4.063,4.0631,4.0633,4.0639,4.0641,4.0657,4.0655,4.0657,4.0659,4.0672,4.0672,4.0673,4.067,4.067,4.067,0,0,0,0,0,0,4.0575,4.0591,4.0595,4.0602,4.0611,4.0622,4.0625,4.0629,4.0636,4.0636,4.0643,4.0645,4.0652,4.0656,4.0653,4.0665,4.0665,4.0665,4.0662,4.0662,4.0662,4.0661,4.0657,0,0,0,0,0,4.0574,4.0582,4.0595,4.0599,4.0604,4.0614,4.0618,4.0623,4.0631,4.0634,4.0641,4.0648,4.0655,4.0658,4.0665,4.0671,4.0674,4.0673,4.0674,4.0674,4.0674,4.068,4.0681,4.0674,4.0674,4.0674,0,0,4.057,4.058,4.0584,4.0598,4.0605,4.0612,4.0616,4.0623,4.0629,4.0635,4.0643,4.0648,4.0656,4.0664,4.0667,4.0667,4.0677,4.0674,4.0674,4.0674,4.0681,4.0681,4.0682,4.0674,4.0674,4.0674,0,0,4.0568,4.0576,4.0582,4.059,4.0602,4.0609,4.0611,4.0623,4.0627,4.0636,4.0641,4.0648,4.0658,4.0665,4.067,4.0674,4.0677,4.0676,4.0676,4.0682,4.0683,4.0684,4.0687,4.0688,4.0676,4.0676,4.0676,0,4.0562,4.0574,4.0584,4.0592,4.0599,4.0607,4.0614,4.0621,4.0633,4.0637,4.0638,4.0654,4.066,4.067,4.0672,4.0674,4.0677,4.0675,4.0682,4.0683,4.0684,4.0687,4.0688,4.0676,4.0676,4.0676,4.0676,0,4.0567,4.0576,4.058,4.0595,4.0601,4.0608,4.062,4.0625,4.0631,4.0638,4.0648,4.0656,4.0665,4.0668,4.0671,4.068,4.068,4.0681,4.0681,4.0684,4.0688,4.0689,4.0676,4.0676,4.0676,4.0676,0,0,4.0556,4.0579,4.058,4.0589,4.0604,4.0611,4.0619,4.0631,4.0636,4.0645,4.0653,4.0664,4.0666,4.0672,4.0677,4.0682,4.0688,4.0683,4.0683,4.0685,4.07,4.07,4.0701,4.069,4.069,4.0691,4.07,0,4.0557,4.0574,4.0585,4.0597,4.0607,4.0617,4.0624,4.0634,4.0642,4.0651,4.0658,4.0667,4.0668,4.0672,4.0678,4.0686,4.0691,4.0685,4.0698,4.0698,4.0697,4.0702,4.0701,4.0709,4.0701,4.0701,4.0701,0,4.0559,4.0572,4.0586,4.0604,4.0608,4.0615,4.0628,4.0636,4.0648,4.0654,4.0662,4.0668,4.0678,4.0677,4.0692,4.0688,4.0693,4.0698,4.0699,4.0701,4.07,4.0706,4.0712,4.0714,4.0703,4.0703,4.0703,0,4.0552,4.0572,4.0584,4.059,4.061,4.0616,4.0624,4.0636,4.0644,4.0655,4.066,4.0672,4.0678,4.0687,4.0696,4.0695,4.071,4.071,4.0715,4.0715,4.0718,4.0718,4.0727,4.072,4.072,4.072,4.072,0,4.0552,4.0561,4.0582,4.0589,4.06,4.0612,4.0622,4.0631,4.0643,4.0653,4.0661,4.0669,4.0681,4.0691,4.0698,4.071,4.0712,4.0717,4.0719,4.0717,4.0717,4.0721,4.0721,4.072,4.072,4.072,4.072,0,4.0546,4.0559,4.0574,4.0593,4.0599,4.0606,4.0622,4.063,4.0639,4.0652,4.0655,4.0669,4.0682,4.0693,4.0708,4.0713,4.0726,4.0727,4.0723,4.0724,4.073,4.0729,4.0742,4.0746,4.0735,4.0735,4.0735,0,4.0545,4.0553,4.0575,4.0583,4.0592,4.0604,4.0613,4.0627,4.0635,4.0652,4.0658,4.0672,4.0684,4.0704,4.0715,4.0728,4.0731,4.0734,4.0732,4.0731,4.0733,4.0733,4.0735,4.0735,4.0735,4.0735,4.0735,0,4.0544,4.0552,4.0565,4.0582,4.0593,4.0606,4.0619,4.0625,4.0641,4.065,4.0665,4.0675,4.0693,4.0707,4.0722,4.073,4.0735,4.0736,4.0738,4.0736,4.0734,4.0738,4.0725,4.0735,4.0735,4.0735,4.0735,4.0735,4.0541,4.055,4.0568,4.0583,4.0596,4.0609,4.0619,4.0631,4.0644,4.0661,4.0668,4.0684,4.0698,4.0719,4.0728,4.074,4.074,4.0743,4.0744,4.0745,4.0746,4.0732,4.0742,4.0742,4.0742,4.0742,4.0742,0,4.0542,4.0555,4.0569,4.059,4.0603,4.0609,4.0625,4.0635,4.0649,4.0664,4.0677,4.0695,4.0709,4.0723,4.0739,4.0746,4.0749,4.075,4.075,4.0752,4.0743,4.0741,4.0747,4.0747,4.0747,4.0747,4.0747,4.0747,4.0544,4.056,4.057,4.0593,4.0606,4.0623,4.0632,4.0645,4.0657,4.0678,4.0691,4.0701,4.0715,4.0733,4.0747,4.0751,4.0756,4.0757,4.0761,4.0753,4.0752,4.0752,4.0749,4.0758,4.0758,4.0769,4.0769,4.077]}]]